User: anonymous   Login
Location: Stoke Bliss
(52.2667°N, 2.5167°W)
Time: 16:37:31
(UTC+00:00)
Language:

Cosmos 1869 Rocket - Orbit

View from above orbital plane
View from above orbital plane
View from above satellite
View from above satellite

Ground track
Ground track

The orbit data is extracted from the following two-line orbital elements,

1 18215U 87062B   21129.22546119  .00000075  00000-0  61527-5 0  9993
2 18215  82.5156  30.6958 0021846 117.5886 357.9685 14.83260130805660
Epoch (UTC): 09 May 2021 05:24:39
Eccentricity: 0.0021846
inclination: 82.5156°
perigee height: 604 km
apogee height: 634 km
right ascension of ascending node: 30.6958°
argument of perigee: 117.5886°
revolutions per day: 14.83260130
mean anomaly at epoch: 357.9685°
orbit number at epoch: 80566

The dashed part of the orbit path shows where the satellite is in the earth's shadow,  

DLR